User: anonymous   Login
Location: Unspecified
(0.0000°N, 0.0000°E)
Time: 19:22:16
(UTC+01:00)
Language:

Coronas F rocket - Orbit

View from above orbital plane
View from above orbital plane
View from above satellite
View from above satellite

Ground track
Ground track

The orbit data is extracted from the following two-line orbital elements,

1 26874U 01032B   16338.21906142  .00046390 -37101-6  13487-3 0  9996
2 26874  82.4566  95.3550 0004341 273.6116  86.4661 15.92693017862432
Epoch (UTC): 03 December 2016 05:15:26
Eccentricity: 0.0004341
inclination: 82.4566°
perigee height: 292 km
apogee height: 297 km
right ascension of ascending node: 95.3550°
argument of perigee: 273.6116°
revolutions per day: 15.92693017
mean anomaly at epoch: 86.4661°
orbit number at epoch: 86243

The dashed part of the orbit path shows where the satellite is in the earth's shadow,  

DLR